| time (UTC) | temp C | wind direction | speed KPH | gust KPH | rain 1hr cm | rain 24hr cm | rain mn cm | humidity % | barometer mb |
| 20260505012503 | 21 | 87 | 6.4 | 16.1 | 0.00 | 0.00 | 0.00 | 71 | 1016.5 |
| 20260505012007 | 21 | 92 | 3.2 | 11.3 | 0.00 | 0.00 | 0.00 | 71 | 1016.4 |
| 20260505011511 | 21 | 93 | 4.8 | 14.5 | 0.00 | 0.00 | 0.00 | 70 | 1016.5 |
| 20260505011006 | 22 | 115 | 6.4 | 14.5 | 0.00 | 0.00 | 0.00 | 70 | 1016.3 |
| 20260505010508 | 22 | 90 | 4.8 | 11.3 | 0.00 | 0.00 | 0.00 | 70 | 1016.2 |
| 20260505005008 | 22 | 82 | 4.8 | 12.9 | 0.00 | 0.00 | 0.00 | 69 | 1016.2 |
| 20260505004542 | 22 | 88 | 6.4 | 14.5 | 0.00 | 0.00 | 0.00 | 69 | 1016.2 |
| 20260505004003 | 22 | 93 | 6.4 | 16.1 | 0.00 | 0.00 | 0.00 | 68 | 1016.2 |
| 20260505003503 | 22 | 83 | 4.8 | 17.7 | 0.00 | 0.00 | 0.00 | 68 | 1016.3 |
| 20260505003012 | 22 | 75 | 8.0 | 17.7 | 0.00 | 0.00 | 0.00 | 67 | 1016.1 |
| 20260505002509 | 22 | 108 | 8.0 | 16.1 | 0.00 | 0.00 | 0.00 | 68 | 1016.0 |
| 20260505002012 | 22 | 142 | 6.4 | 16.1 | 0.00 | 0.00 | 0.00 | 67 | 1015.9 |
| 20260505001514 | 23 | 105 | 4.8 | 14.5 | 0.00 | 0.00 | 0.00 | 68 | 1015.9 |
| 20260505001012 | 23 | 122 | 6.4 | 14.5 | 0.00 | 0.00 | 0.00 | 67 | 1015.8 |
| 20260505000503 | 23 | 113 | 6.4 | 20.9 | 0.00 | 0.00 | 0.00 | 66 | 1015.5 |
| 20260505000034 | 23 | 75 | 6.4 | 20.9 | 0.00 | 0.00 | 0.00 | 66 | 1015.5 |
| 20260504235507 | 23 | 79 | 3.2 | 16.1 | 0.00 | 0.00 | 0.00 | 66 | 1015.5 |
| 20260504235003 | 23 | 95 | 8.0 | 16.1 | 0.00 | 0.00 | 0.00 | 65 | 1015.6 |
| 20260504234515 | 24 | 92 | 1.6 | 16.1 | 0.00 | 0.00 | 0.00 | 65 | 1015.4 |
| 20260504234008 | 24 | 71 | 6.4 | 16.1 | 0.00 | 0.00 | 0.00 | 64 | 1015.4 |
| 20260504233513 | 24 | 61 | 4.8 | 20.9 | 0.00 | 0.00 | 0.00 | 63 | 1015.3 |
| 20260504233014 | 24 | 132 | 6.4 | 24.1 | 0.00 | 0.00 | 0.00 | 62 | 1015.2 |
| 20260504232505 | 25 | 113 | 12.9 | 24.1 | 0.00 | 0.00 | 0.00 | 61 | 1015.2 |
| 20260504232004 | 25 | 121 | 9.7 | 22.5 | 0.00 | 0.00 | 0.00 | 61 | 1015.2 |
| 20260504231510 | 25 | 67 | 9.7 | 22.5 | 0.00 | 0.00 | 0.00 | 61 | 1015.3 |
| 20260504231004 | 25 | 80 | 4.8 | 22.5 | 0.00 | 0.00 | 0.00 | 61 | 1015.2 |
| 20260504230507 | 25 | 95 | 9.7 | 22.5 | 0.00 | 0.00 | 0.00 | 59 | 1015.1 |
| 20260504230016 | 26 | 69 | 8.0 | 20.9 | 0.00 | 0.00 | 0.00 | 60 | 1015.0 |
| 20260504225503 | 26 | 65 | 14.5 | 20.9 | 0.00 | 0.00 | 0.00 | 59 | 1015.0 |
| 20260504225012 | 26 | 98 | 8.0 | 19.3 | 0.00 | 0.00 | 0.00 | 59 | 1015.0 |
| 20260504224521 | 26 | 97 | 8.0 | 19.3 | 0.00 | 0.00 | 0.00 | 59 | 1015.2 |
| 20260504224012 | 26 | 59 | 9.7 | 19.3 | 0.00 | 0.00 | 0.00 | 59 | 1015.2 |
| 20260504223507 | 26 | 57 | 8.0 | 17.7 | 0.00 | 0.00 | 0.00 | 58 | 1015.2 |
| 20260504223020 | 26 | 97 | 6.4 | 17.7 | 0.00 | 0.00 | 0.00 | 57 | 1015.1 |
| 20260504222510 | 26 | 119 | 9.7 | 22.5 | 0.00 | 0.00 | 0.00 | 56 | 1015.2 |
| 20260504222003 | 26 | 94 | 9.7 | 22.5 | 0.00 | 0.00 | 0.00 | 56 | 1015.2 |
| 20260504221518 | 26 | 98 | 9.7 | 20.9 | 0.00 | 0.00 | 0.00 | 57 | 1015.1 |
| 20260504221008 | 27 | 64 | 9.7 | 20.9 | 0.00 | 0.00 | 0.00 | 56 | 1015.1 |
| 20260504220505 | 27 | 111 | 12.9 | 20.9 | 0.00 | 0.00 | 0.00 | 54 | 1015.1 |
| 20260504220016 | 28 | 88 | 9.7 | 22.5 | 0.00 | 0.00 | 0.00 | 52 | 1015.1 |
| 20260504215507 | 28 | 31 | 4.8 | 22.5 | 0.00 | 0.00 | 0.00 | 52 | 1015.1 |
| 20260504215008 | 28 | 34 | 9.7 | 25.7 | 0.00 | 0.00 | 0.00 | 52 | 1015.1 |
| 20260504213508 | 28 | 67 | 6.4 | 20.9 | 0.00 | 0.00 | 0.00 | 53 | 1015.0 |
| 20260504213023 | 28 | 23 | 11.3 | 19.3 | 0.00 | 0.00 | 0.00 | 53 | 1015.0 |
| 20260504212507 | 28 | 71 | 9.7 | 22.5 | 0.00 | 0.00 | 0.00 | 53 | 1015.0 |
| 20260504211525 | 28 | 66 | 6.4 | 25.7 | 0.00 | 0.00 | 0.00 | 52 | 1014.9 |
| 20260504211007 | 28 | 113 | 11.3 | 30.6 | 0.00 | 0.00 | 0.00 | 54 | 1015.1 |
| 20260504210507 | 28 | 83 | 12.9 | 30.6 | 0.00 | 0.00 | 0.00 | 51 | 1015.0 |
| 20260504210022 | 28 | 28 | 6.4 | 24.1 | 0.00 | 0.00 | 0.00 | 50 | 1015.0 |
| 20260504205505 | 28 | 115 | 8.0 | 20.9 | 0.00 | 0.00 | 0.00 | 51 | 1015.0 |
| 20260504205008 | 28 | 40 | 11.3 | 24.1 | 0.00 | 0.00 | 0.00 | 52 | 1015.1 |
| 20260504204516 | 28 | 98 | 12.9 | 24.1 | 0.00 | 0.00 | 0.00 | 54 | 1015.1 |
| 20260504204010 | 28 | 60 | 9.7 | 25.7 | 0.00 | 0.00 | 0.00 | 51 | 1015.1 |
| 20260504203514 | 28 | 41 | 9.7 | 25.7 | 0.00 | 0.00 | 0.00 | 52 | 1015.0 |
| 20260504203018 | 28 | 30 | 14.5 | 20.9 | 0.00 | 0.00 | 0.00 | 51 | 1015.1 |
| 20260504202513 | 28 | 63 | 8.0 | 29.0 | 0.00 | 0.00 | 0.00 | 53 | 1015.3 |
| 20260504202012 | 28 | 47 | 12.9 | 29.0 | 0.00 | 0.00 | 0.00 | 50 | 1015.2 |
| 20260504201518 | 28 | 75 | 6.4 | 20.9 | 0.00 | 0.00 | 0.00 | 51 | 1015.2 |
| 20260504200509 | 29 | 80 | 11.3 | 27.4 | 0.00 | 0.00 | 0.00 | 49 | 1015.4 |
| 20260504200025 | 30 | 64 | 12.9 | 27.4 | 0.00 | 0.00 | 0.00 | 48 | 1015.4 |
| 20260504195507 | 30 | 83 | 11.3 | 25.7 | 0.00 | 0.00 | 0.00 | 51 | 1015.3 |
| 20260504194518 | 29 | 46 | 8.0 | 25.7 | 0.00 | 0.00 | 0.00 | 49 | 1015.6 |
| 20260504194008 | 29 | 43 | 14.5 | 22.5 | 0.00 | 0.00 | 0.00 | 51 | 1015.7 |
| 20260504193508 | 28 | 49 | 8.0 | 24.1 | 0.00 | 0.00 | 0.00 | 52 | 1015.7 |
| 20260504193019 | 28 | 80 | 8.0 | 24.1 | 0.00 | 0.00 | 0.00 | 51 | 1015.8 |
| 20260504192508 | 29 | 34 | 9.7 | 20.9 | 0.00 | 0.00 | 0.00 | 49 | 1015.7 |
| 20260504191526 | 29 | 103 | 12.9 | 20.9 | 0.00 | 0.00 | 0.00 | 48 | 1015.8 |
| 20260504191007 | 29 | 103 | 9.7 | 19.3 | 0.00 | 0.00 | 0.00 | 48 | 1015.9 |
| 20260504190511 | 29 | 105 | 8.0 | 22.5 | 0.00 | 0.00 | 0.00 | 49 | 1015.9 |
| 20260504185509 | 30 | 85 | 6.4 | 19.3 | 0.00 | 0.00 | 0.00 | 50 | 1016.2 |
| 20260504184522 | 30 | 103 | 8.0 | 19.3 | 0.00 | 0.00 | 0.00 | 51 | 1016.2 |
| 20260504183504 | 29 | 360 | 9.7 | 24.1 | 0.00 | 0.00 | 0.00 | 50 | 1016.5 |
| 20260504183017 | 29 | 78 | 11.3 | 24.1 | 0.00 | 0.00 | 0.00 | 50 | 1016.5 |
| 20260504182508 | 30 | 53 | 11.3 | 20.9 | 0.00 | 0.00 | 0.00 | 48 | 1016.6 |
| 20260504182011 | 29 | 50 | 6.4 | 20.9 | 0.00 | 0.00 | 0.00 | 49 | 1016.6 |
| 20260504181522 | 29 | 40 | 8.0 | 24.1 | 0.00 | 0.00 | 0.00 | 47 | 1016.7 |
| 20260504180513 | 29 | 58 | 6.4 | 17.7 | 0.00 | 0.00 | 0.00 | 51 | 1016.8 |
| 20260504180025 | 29 | 53 | 6.4 | 17.7 | 0.00 | 0.00 | 0.00 | 49 | 1016.8 |
| 20260504175512 | 29 | 57 | 9.7 | 19.3 | 0.00 | 0.00 | 0.00 | 51 | 1017.0 |
| 20260504174525 | 29 | 36 | 4.8 | 19.3 | 0.00 | 0.00 | 0.00 | 47 | 1017.2 |
| 20260504173508 | 28 | 75 | 6.4 | 17.7 | 0.00 | 0.00 | 0.00 | 48 | 1017.2 |
| 20260504172504 | 28 | 101 | 6.4 | 20.9 | 0.00 | 0.00 | 0.00 | 53 | 1017.2 |
| 20260504172004 | 28 | 80 | 4.8 | 20.9 | 0.00 | 0.00 | 0.00 | 51 | 1017.2 |
| 20260504171510 | 28 | 40 | 9.7 | 20.9 | 0.00 | 0.00 | 0.00 | 50 | 1017.2 |
| 20260504171005 | 28 | 11 | 11.3 | 20.9 | 0.00 | 0.00 | 0.00 | 46 | 1017.2 |
| 20260504170505 | 28 | 9 | 6.4 | 19.3 | 0.00 | 0.00 | 0.00 | 49 | 1017.4 |
| 20260504141007 | 24 | 16 | 11.3 | 22.5 | 0.00 | 0.00 | 0.00 | 63 | 1018.1 |
| 20260504130504 | 21 | 352 | 6.4 | 22.5 | 0.00 | 0.00 | 0.00 | 72 | 1017.8 |
| 20260504110506 | 16 | 342 | 1.6 | 8.0 | 0.00 | 0.00 | 0.00 | 88 | 1016.9 |
| 20260504100503 | 16 | 351 | 0.0 | 4.8 | 0.00 | 0.00 | 0.00 | 87 | 1016.5 |
| 20260504082003 | 18 | 5 | 1.6 | 4.8 | 0.00 | 0.10 | 0.00 | 82 | 1016.4 |
| 20260504081507 | 18 | 5 | 0.0 | 4.8 | 0.00 | 0.10 | 0.00 | 82 | 1016.4 |
| 20260504081004 | 18 | 5 | 0.0 | 4.8 | 0.00 | 0.10 | 0.00 | 82 | 1016.4 |
| 20260504080504 | 18 | 5 | 0.0 | 4.8 | 0.00 | 0.10 | 0.00 | 82 | 1016.4 |
| 20260504050507 | 19 | 26 | 1.6 | 4.8 | 0.00 | 0.20 | 0.00 | 79 | 1017.8 |
| 20260504050022 | 20 | 19 | 1.6 | 4.8 | 0.00 | 0.20 | 0.00 | 79 | 1017.8 |
| 20260504045504 | 20 | 42 | 1.6 | 4.8 | 0.00 | 0.20 | 0.00 | 79 | 1017.9 |
| 20260504045006 | 20 | 24 | 0.0 | 4.8 | 0.00 | 0.23 | 0.00 | 79 | 1018.0 |
| 20260504044527 | 20 | 352 | 0.0 | 6.4 | 0.00 | 0.23 | 0.00 | 79 | 1018.0 |
| 20260504044003 | 20 | 14 | 1.6 | 6.4 | 0.00 | 0.23 | 0.00 | 78 | 1018.0 |
| 20260504043503 | 20 | 44 | 1.6 | 4.8 | 0.00 | 0.23 | 0.00 | 78 | 1017.9 |
| 20260504043008 | 20 | 22 | 1.6 | 4.8 | 0.00 | 0.23 | 0.00 | 78 | 1018.1 |
| 20260504042504 | 20 | 352 | 1.6 | 6.4 | 0.00 | 0.23 | 0.00 | 78 | 1018.2 |
| 20260504042004 | 20 | 20 | 1.6 | 8.0 | 0.00 | 0.25 | 0.00 | 78 | 1018.3 |
| 20260504041516 | 20 | 5 | 3.2 | 8.0 | 0.00 | 0.25 | 0.00 | 77 | 1018.4 |
| 20260504041007 | 20 | 49 | 1.6 | 6.4 | 0.00 | 0.28 | 0.00 | 77 | 1018.3 |
| 20260504040507 | 20 | 46 | 1.6 | 6.4 | 0.00 | 0.28 | 0.00 | 77 | 1018.3 |
| 20260504040017 | 20 | 25 | 1.6 | 6.4 | 0.00 | 0.30 | 0.00 | 77 | 1018.1 |
| 20260504035510 | 20 | 59 | 0.0 | 3.2 | 0.00 | 0.30 | 0.30 | 76 | 1018.2 |
| 20260504035007 | 20 | 74 | 0.0 | 9.7 | 0.00 | 0.30 | 0.30 | 76 | 1018.3 |
| 20260504034510 | 20 | 78 | 3.2 | 12.9 | 0.00 | 0.30 | 0.30 | 76 | 1018.2 |
| 20260504034007 | 20 | 45 | 1.6 | 12.9 | 0.00 | 0.30 | 0.30 | 76 | 1018.2 |
| 20260504033507 | 20 | 71 | 3.2 | 12.9 | 0.00 | 0.30 | 0.30 | 76 | 1018.3 |
| 20260504033011 | 21 | 42 | 4.8 | 8.0 | 0.00 | 0.30 | 0.30 | 76 | 1018.2 |
| 20260504032503 | 21 | 16 | 0.0 | 9.7 | 0.00 | 0.30 | 0.30 | 76 | 1018.2 |
| 20260504032006 | 21 | 49 | 4.8 | 11.3 | 0.00 | 0.30 | 0.30 | 76 | 1018.1 |
| 20260504031514 | 21 | 55 | 3.2 | 11.3 | 0.00 | 0.30 | 0.30 | 76 | 1018.1 |
| 20260504031003 | 21 | 20 | 3.2 | 9.7 | 0.00 | 0.30 | 0.30 | 76 | 1018.1 |
| 20260504030507 | 21 | 34 | 0.0 | 6.4 | 0.00 | 0.30 | 0.30 | 76 | 1018.2 |
| 20260504030021 | 21 | 51 | 3.2 | 11.3 | 0.00 | 0.30 | 0.30 | 75 | 1018.1 |
| 20260504025507 | 21 | 13 | 3.2 | 12.9 | 0.00 | 0.30 | 0.30 | 76 | 1018.1 |
| 20260504025003 | 21 | 64 | 3.2 | 12.9 | 0.00 | 0.30 | 0.30 | 75 | 1018.3 |
| 20260504024520 | 21 | 29 | 6.4 | 12.9 | 0.00 | 0.30 | 0.30 | 76 | 1018.2 |
| 20260504024007 | 21 | 76 | 1.6 | 14.5 | 0.00 | 0.30 | 0.30 | 76 | 1018.1 |
| 20260504023504 | 21 | 73 | 3.2 | 14.5 | 0.00 | 0.30 | 0.30 | 75 | 1018.0 |
| 20260504023017 | 21 | 63 | 4.8 | 16.1 | 0.00 | 0.30 | 0.30 | 75 | 1018.1 |
| 20260504022509 | 21 | 71 | 4.8 | 16.1 | 0.00 | 0.30 | 0.30 | 75 | 1018.0 |
| 20260504022010 | 21 | 41 | 8.0 | 17.7 | 0.00 | 0.30 | 0.30 | 75 | 1017.9 |
| 20260504021508 | 21 | 42 | 4.8 | 17.7 | 0.00 | 0.30 | 0.30 | 75 | 1017.9 |
| 20260504021004 | 21 | 81 | 4.8 | 14.5 | 0.00 | 0.30 | 0.30 | 75 | 1017.8 |
| 20260504020503 | 21 | 82 | 6.4 | 14.5 | 0.00 | 0.30 | 0.30 | 75 | 1017.7 |
| 20260504020014 | 21 | 86 | 3.2 | 14.5 | 0.00 | 0.30 | 0.30 | 75 | 1017.7 |
| 20260504015506 | 21 | 76 | 3.2 | 14.5 | 0.00 | 0.30 | 0.30 | 75 | 1017.7 |
| 20260504015007 | 21 | 37 | 6.4 | 14.5 | 0.00 | 0.30 | 0.30 | 74 | 1017.6 |
| 20260504014522 | 21 | 20 | 4.8 | 16.1 | 0.00 | 0.30 | 0.30 | 74 | 1017.6 |
| 20260504014003 | 21 | 90 | 3.2 | 24.1 | 0.00 | 0.30 | 0.30 | 74 | 1017.8 |
| 20260504013506 | 21 | 349 | 4.8 | 24.1 | 0.00 | 0.30 | 0.30 | 73 | 1017.8 |
| 20260504013033 | 21 | 35 | 4.8 | 14.5 | 0.00 | 0.30 | 0.30 | 74 | 1017.6 |